Time,TemperatureF,DewpointF,PressureIn,WindDirection,WindDirectionDegrees,WindSpeedMPH,WindSpeedGustMPH,Humidity,HourlyPrecipIn,Conditions,Clouds,dailyrainin,SoftwareType,DateUTC
2013-06-05 00:02:00,46.0,35.0,30.14,NE,45,0.0,0.0,65,0.00,,,0.00,,2013-06-05 04:02:00,
2013-06-05 00:13:00,46.0,35.0,30.14,NE,45,0.0,0.0,65,0.00,,,0.00,,2013-06-05 04:13:00,
2013-06-05 00:23:00,46.0,35.0,30.14,NE,45,0.0,0.0,66,0.00,,,0.00,,2013-06-05 04:23:00,
2013-06-05 00:33:00,46.0,35.0,30.14,NE,45,0.0,0.0,66,0.00,,,0.00,,2013-06-05 04:33:00,
2013-06-05 00:42:00,46.0,35.0,30.14,NE,45,0.0,0.0,66,0.00,,,0.00,,2013-06-05 04:42:00,
2013-06-05 00:53:00,46.0,36.0,30.14,NE,45,0.0,0.0,67,0.00,,,0.00,,2013-06-05 04:53:00,
2013-06-05 01:02:00,47.0,36.0,30.15,ENE,67,0.0,0.0,66,0.00,,,0.00,,2013-06-05 05:02:00,
2013-06-05 01:12:00,47.0,36.0,30.15,ENE,67,0.0,0.0,66,0.00,,,0.00,,2013-06-05 05:12:00,
2013-06-05 01:22:00,47.0,36.0,30.14,ENE,67,0.0,0.0,65,0.00,,,0.00,,2013-06-05 05:22:00,
2013-06-05 01:32:00,47.0,36.0,30.14,ENE,67,0.0,0.0,65,0.00,,,0.00,,2013-06-05 05:32:00,
2013-06-05 01:42:00,47.0,36.0,30.14,ENE,67,0.0,0.0,65,0.00,,,0.00,,2013-06-05 05:42:00,
2013-06-05 01:52:00,47.0,36.0,30.15,ENE,67,0.0,0.0,66,0.00,,,0.00,,2013-06-05 05:52:00,
2013-06-05 02:02:00,46.0,35.0,30.14,ENE,67,0.0,0.0,66,0.00,,,0.00,,2013-06-05 06:02:00,
2013-06-05 02:12:00,46.0,35.0,30.14,ENE,67,0.0,0.0,66,0.00,,,0.00,,2013-06-05 06:12:00,
2013-06-05 02:22:00,46.0,36.0,30.15,ENE,67,0.0,0.0,67,0.00,,,0.00,,2013-06-05 06:22:00,
2013-06-05 02:32:00,47.0,37.0,30.15,ENE,67,0.0,0.0,67,0.00,,,0.00,,2013-06-05 06:32:00,
2013-06-05 02:42:00,47.0,37.0,30.15,ENE,67,0.0,0.0,67,0.00,,,0.00,,2013-06-05 06:42:00,
2013-06-05 02:52:00,47.0,36.0,30.15,ENE,67,0.0,0.0,66,0.00,,,0.00,,2013-06-05 06:52:00,
2013-06-05 03:02:00,48.0,37.0,30.15,ENE,67,0.0,0.0,66,0.00,,,0.00,,2013-06-05 07:02:00,
2013-06-05 03:12:00,48.0,37.0,30.15,ENE,67,0.0,0.0,66,0.00,,,0.00,,2013-06-05 07:12:00,
2013-06-05 03:22:00,48.0,37.0,30.15,ENE,67,0.0,0.0,65,0.00,,,0.00,,2013-06-05 07:22:00,
2013-06-05 03:32:00,49.0,37.0,30.16,ENE,67,0.0,0.0,64,0.00,,,0.00,,2013-06-05 07:32:00,
2013-06-05 03:42:00,49.0,37.0,30.16,ENE,67,0.0,0.0,64,0.00,,,0.00,,2013-06-05 07:42:00,
2013-06-05 03:52:00,49.0,37.0,30.14,ENE,67,0.0,0.0,64,0.00,,,0.00,,2013-06-05 07:52:00,
2013-06-05 04:02:00,49.0,37.0,30.16,ENE,67,0.0,0.0,64,0.00,,,0.00,,2013-06-05 08:02:00,
2013-06-05 04:12:00,49.0,37.0,30.16,ENE,67,0.0,0.0,64,0.00,,,0.00,,2013-06-05 08:12:00,
2013-06-05 04:22:00,49.0,37.0,30.14,ENE,67,0.0,0.0,64,0.00,,,0.00,,2013-06-05 08:22:00,
2013-06-05 04:32:00,47.0,35.0,30.14,SE,135,0.0,0.0,63,0.00,,,0.00,,2013-06-05 08:32:00,
2013-06-05 04:42:00,47.0,35.0,30.14,SE,135,0.0,0.0,63,0.00,,,0.00,,2013-06-05 08:42:00,
2013-06-05 04:52:00,48.0,36.0,30.15,NE,45,0.0,0.0,63,0.00,,,0.00,,2013-06-05 08:52:00,
2013-06-05 05:02:00,47.0,35.0,30.15,NE,45,0.0,0.0,64,0.00,,,0.00,,2013-06-05 09:02:00,
2013-06-05 05:12:00,47.0,35.0,30.15,NE,45,0.0,0.0,64,0.00,,,0.00,,2013-06-05 09:12:00,
2013-06-05 05:22:00,47.0,36.0,30.15,NE,45,0.0,0.0,65,0.00,,,0.00,,2013-06-05 09:22:00,
2013-06-05 05:33:00,47.0,36.0,30.15,ENE,67,0.0,0.0,65,0.00,,,0.00,,2013-06-05 09:33:00,
2013-06-05 05:43:00,47.0,36.0,30.15,ENE,67,0.0,0.0,65,0.00,,,0.00,,2013-06-05 09:43:00,
2013-06-05 05:53:00,46.0,36.0,30.15,ENE,67,0.0,0.0,67,0.00,,,0.00,,2013-06-05 09:53:00,
2013-06-05 06:03:00,47.0,37.0,30.16,ENE,67,0.0,0.0,67,0.00,,,0.00,,2013-06-05 10:03:00,
2013-06-05 06:12:00,47.0,37.0,30.16,ENE,67,0.0,0.0,67,0.00,,,0.00,,2013-06-05 10:12:00,
2013-06-05 06:22:00,48.0,38.0,30.17,ENE,67,0.0,0.0,67,0.00,,,0.00,,2013-06-05 10:22:00,
2013-06-05 06:33:00,48.0,38.0,30.17,ENE,67,0.0,0.0,68,0.00,,,0.00,,2013-06-05 10:33:00,
2013-06-05 06:42:00,48.0,38.0,30.17,ENE,67,0.0,0.0,68,0.00,,,0.00,,2013-06-05 10:42:00,
2013-06-05 06:53:00,49.0,39.0,30.17,ENE,67,0.0,0.0,67,0.00,,,0.00,,2013-06-05 10:53:00,
2013-06-05 07:02:00,50.0,39.0,30.17,ENE,67,0.0,0.0,67,0.00,,,0.00,,2013-06-05 11:02:00,
2013-06-05 07:12:00,50.0,39.0,30.17,ENE,67,0.0,0.0,67,0.00,,,0.00,,2013-06-05 11:12:00,
2013-06-05 07:22:00,51.0,40.0,30.18,ENE,67,0.0,0.0,66,0.00,,,0.00,,2013-06-05 11:22:00,
2013-06-05 07:32:00,51.0,40.0,30.19,ENE,67,0.0,0.0,65,0.00,,,0.00,,2013-06-05 11:32:00,
2013-06-05 07:42:00,51.0,40.0,30.19,ENE,67,0.0,0.0,65,0.00,,,0.00,,2013-06-05 11:42:00,
2013-06-05 07:52:00,51.0,40.0,30.18,ENE,67,0.0,0.0,65,0.00,,,0.00,,2013-06-05 11:52:00,
2013-06-05 08:02:00,52.0,41.0,30.19,ENE,67,0.0,0.0,65,0.00,,,0.00,,2013-06-05 12:02:00,
2013-06-05 08:12:00,52.0,41.0,30.19,ENE,67,0.0,0.0,65,0.00,,,0.00,,2013-06-05 12:12:00,
2013-06-05 08:22:00,52.0,40.0,30.19,ENE,67,0.0,0.0,63,0.00,,,0.00,,2013-06-05 12:22:00,
2013-06-05 08:32:00,53.0,40.0,30.18,ENE,67,0.0,0.0,62,0.00,,,0.00,,2013-06-05 12:32:00,
2013-06-05 08:44:00,53.0,40.0,30.18,ENE,67,0.0,0.0,62,0.00,,,0.00,,2013-06-05 12:44:00,
2013-06-05 08:52:00,54.0,41.0,30.19,ENE,67,0.0,0.0,62,0.00,,,0.00,,2013-06-05 12:52:00,
2013-06-05 09:02:00,54.0,41.0,30.19,SSE,157,0.0,3.0,62,0.00,,,0.00,,2013-06-05 13:02:00,
2013-06-05 09:12:00,54.0,41.0,30.19,SSE,157,0.0,3.0,62,0.00,,,0.00,,2013-06-05 13:12:00,
2013-06-05 09:22:00,55.0,41.0,30.19,SSE,157,0.0,0.0,60,0.00,,,0.00,,2013-06-05 13:22:00,
2013-06-05 09:32:00,56.0,42.0,30.19,SSE,157,0.0,0.0,60,0.00,,,0.00,,2013-06-05 13:32:00,
2013-06-05 09:42:00,58.0,43.0,30.19,SSE,157,0.0,0.0,58,0.00,,,0.00,,2013-06-05 13:42:00,
2013-06-05 09:52:00,58.0,43.0,30.19,SSE,157,0.0,0.0,58,0.00,,,0.00,,2013-06-05 13:52:00,
2013-06-05 10:02:00,59.0,43.0,30.19,SSE,157,0.0,0.0,56,0.00,,,0.00,,2013-06-05 14:02:00,
2013-06-05 10:12:00,59.0,43.0,30.19,SSE,157,0.0,0.0,56,0.00,,,0.00,,2013-06-05 14:12:00,
2013-06-05 10:22:00,60.0,44.0,30.19,SSE,157,1.0,1.0,56,0.00,,,0.00,,2013-06-05 14:22:00,
2013-06-05 10:32:00,62.0,46.0,30.19,South,180,0.0,0.0,55,0.00,,,0.00,,2013-06-05 14:32:00,
2013-06-05 10:52:00,63.0,46.0,30.19,SSW,202,3.0,3.0,54,0.00,,,0.00,,2013-06-05 14:52:00,
2013-06-05 11:02:00,65.0,46.0,30.19,NE,45,0.0,0.0,50,0.00,,,0.00,,2013-06-05 15:02:00,
2013-06-05 11:22:00,65.0,46.0,30.19,ESE,112,0.0,2.0,51,0.00,,,0.00,,2013-06-05 15:22:00,
2013-06-05 11:33:00,66.0,48.0,30.19,WSW,242,3.0,4.0,52,0.00,,,0.00,,2013-06-05 15:33:00,
2013-06-05 11:42:00,67.0,48.0,30.19,SSW,202,0.0,2.0,50,0.00,,,0.00,,2013-06-05 15:42:00,
2013-06-05 11:53:00,67.0,48.0,30.19,SSW,202,0.0,2.0,50,0.00,,,0.00,,2013-06-05 15:53:00,
2013-06-05 12:03:00,69.0,50.0,30.20,SSW,202,0.0,3.0,50,0.00,,,0.00,,2013-06-05 16:03:00,
2013-06-05 12:23:00,67.0,47.0,30.19,WSW,247,0.0,0.0,48,0.00,,,0.00,,2013-06-05 16:23:00,
2013-06-05 12:32:00,67.0,47.0,30.19,WSW,247,0.0,0.0,48,0.00,,,0.00,,2013-06-05 16:32:00,
2013-06-05 12:42:00,69.0,47.0,30.19,SE,140,1.0,2.0,45,0.00,,,0.00,,2013-06-05 16:42:00,
2013-06-05 12:54:00,69.0,47.0,30.19,SE,140,1.0,2.0,45,0.00,,,0.00,,2013-06-05 16:54:00,
2013-06-05 13:02:00,69.0,46.0,30.18,ENE,67,0.0,2.0,44,0.00,,,0.00,,2013-06-05 17:02:00,
2013-06-05 13:13:00,69.0,46.0,30.18,ENE,67,0.0,2.0,44,0.00,,,0.00,,2013-06-05 17:13:00,
2013-06-05 13:22:00,69.0,47.0,30.17,NE,45,0.0,0.0,45,0.00,,,0.00,,2013-06-05 17:22:00,
2013-06-05 13:33:00,68.0,46.0,30.17,NE,45,0.0,0.0,46,0.00,,,0.00,,2013-06-05 17:33:00,
2013-06-05 13:43:00,70.0,46.0,30.16,North,349,2.0,4.0,43,0.00,,,0.00,,2013-06-05 17:43:00,
2013-06-05 13:52:00,70.0,46.0,30.16,North,349,2.0,4.0,43,0.00,,,0.00,,2013-06-05 17:52:00,
2013-06-05 14:02:00,71.0,47.0,30.16,NNE,22,2.0,4.0,42,0.00,,,0.00,,2013-06-05 18:02:00,
2013-06-05 14:12:00,71.0,47.0,30.16,NNE,22,2.0,4.0,42,0.00,,,0.00,,2013-06-05 18:12:00,
2013-06-05 14:22:00,72.0,46.0,30.15,ENE,67,3.0,3.0,40,0.00,,,0.00,,2013-06-05 18:22:00,
2013-06-05 14:32:00,72.0,46.0,30.14,NNE,15,2.0,3.0,40,0.00,,,0.00,,2013-06-05 18:32:00,
2013-06-05 14:42:00,70.0,45.0,30.14,NNW,348,2.0,5.0,40,0.00,,,0.00,,2013-06-05 18:42:00,
2013-06-05 14:52:00,70.0,45.0,30.14,NNW,348,2.0,5.0,40,0.00,,,0.00,,2013-06-05 18:52:00,
2013-06-05 15:02:00,70.0,45.0,30.14,ENE,67,1.0,4.0,40,0.00,,,0.00,,2013-06-05 19:02:00,
2013-06-05 15:12:00,70.0,45.0,30.14,ENE,67,1.0,4.0,40,0.00,,,0.00,,2013-06-05 19:12:00,
2013-06-05 15:23:00,70.0,45.0,30.15,North,359,3.0,5.0,41,0.00,,,0.00,,2013-06-05 19:23:00,
2013-06-05 15:32:00,69.0,44.0,30.13,North,0,2.0,3.0,41,0.00,,,0.00,,2013-06-05 19:32:00,
2013-06-05 15:42:00,69.0,44.0,30.13,North,5,2.0,4.0,41,0.00,,,0.00,,2013-06-05 19:42:00,
2013-06-05 15:53:00,69.0,44.0,30.13,North,5,2.0,4.0,41,0.00,,,0.00,,2013-06-05 19:53:00,
2013-06-05 16:02:00,69.0,44.0,30.12,NNE,20,2.0,3.0,40,0.00,,,0.00,,2013-06-05 20:02:00,
2013-06-05 16:12:00,70.0,44.0,30.12,ESE,112,0.0,3.0,39,0.00,,,0.00,,2013-06-05 20:12:00,
2013-06-05 16:23:00,70.0,44.0,30.12,ESE,112,0.0,3.0,39,0.00,,,0.00,,2013-06-05 20:23:00,
2013-06-05 16:32:00,70.0,44.0,30.12,North,0,0.0,0.0,39,0.00,,,0.00,,2013-06-05 20:32:00,
2013-06-05 16:42:00,69.0,44.0,30.13,NE,45,0.0,2.0,40,0.00,,,0.00,,2013-06-05 20:42:00,
2013-06-05 16:52:00,69.0,44.0,30.13,NE,45,0.0,2.0,40,0.00,,,0.00,,2013-06-05 20:52:00,
2013-06-05 17:02:00,69.0,42.0,30.13,NE,45,0.0,3.0,37,0.00,,,0.00,,2013-06-05 21:02:00,
2013-06-05 17:12:00,68.0,41.0,30.12,NNE,22,1.0,3.0,38,0.00,,,0.00,,2013-06-05 21:12:00,
2013-06-05 17:22:00,68.0,41.0,30.12,NNE,22,1.0,3.0,38,0.00,,,0.00,,2013-06-05 21:22:00,
2013-06-05 17:33:00,67.0,41.0,30.12,NE,45,0.0,0.0,39,0.00,,,0.00,,2013-06-05 21:33:00,
2013-06-05 17:43:00,67.0,41.0,30.11,NE,45,0.0,1.0,39,0.00,,,0.00,,2013-06-05 21:43:00,
2013-06-05 17:53:00,67.0,41.0,30.11,NE,45,0.0,1.0,39,0.00,,,0.00,,2013-06-05 21:53:00,
2013-06-05 18:02:00,67.0,41.0,30.11,ENE,67,0.0,2.0,39,0.00,,,0.00,,2013-06-05 22:02:00,
2013-06-05 18:12:00,67.0,41.0,30.11,ENE,67,0.0,2.0,39,0.00,,,0.00,,2013-06-05 22:12:00,
2013-06-05 18:22:00,67.0,42.0,30.10,NE,45,0.0,3.0,40,0.00,,,0.00,,2013-06-05 22:22:00,
2013-06-05 18:33:00,66.0,40.0,30.11,SSE,157,0.0,4.0,39,0.00,,,0.00,,2013-06-05 22:33:00,
2013-06-05 18:42:00,66.0,41.0,30.11,North,0,0.0,1.0,40,0.00,,,0.00,,2013-06-05 22:42:00,
2013-06-05 18:53:00,66.0,41.0,30.11,North,0,0.0,1.0,40,0.00,,,0.00,,2013-06-05 22:53:00,
2013-06-05 19:02:00,66.0,42.0,30.11,SE,135,0.0,0.0,41,0.00,,,0.00,,2013-06-05 23:02:00,
2013-06-05 19:12:00,65.0,41.0,30.11,ESE,112,0.0,0.0,42,0.00,,,0.00,,2013-06-05 23:12:00,
2013-06-05 19:22:00,65.0,41.0,30.11,ESE,112,0.0,0.0,42,0.00,,,0.00,,2013-06-05 23:22:00,
2013-06-05 19:32:00,65.0,41.0,30.11,ESE,112,0.0,0.0,42,0.00,,,0.00,,2013-06-05 23:32:00,
2013-06-05 19:42:00,65.0,41.0,30.11,ESE,112,0.0,0.0,42,0.00,,,0.00,,2013-06-05 23:42:00,
2013-06-05 19:53:00,64.0,42.0,30.10,ESE,112,0.0,0.0,45,0.00,,,0.00,,2013-06-05 23:53:00,
2013-06-05 20:02:00,63.0,42.0,30.10,ESE,112,0.0,0.0,47,0.00,,,0.00,,2013-06-06 00:02:00,
2013-06-05 20:12:00,63.0,42.0,30.10,ESE,112,0.0,0.0,47,0.00,,,0.00,,2013-06-06 00:12:00,
2013-06-05 20:22:00,63.0,42.0,30.10,East,90,0.0,0.0,46,0.00,,,0.00,,2013-06-06 00:22:00,
2013-06-05 20:32:00,62.0,42.0,30.10,ENE,67,0.0,0.0,47,0.00,,,0.00,,2013-06-06 00:32:00,
2013-06-05 20:42:00,61.0,41.0,30.09,ENE,67,0.0,2.0,47,0.00,,,0.00,,2013-06-06 00:42:00,
2013-06-05 20:52:00,61.0,41.0,30.09,ENE,67,0.0,2.0,47,0.00,,,0.00,,2013-06-06 00:52:00,
2013-06-05 21:02:00,60.0,40.0,30.10,NE,45,0.0,3.0,48,0.00,,,0.00,,2013-06-06 01:02:00,
2013-06-05 21:12:00,60.0,40.0,30.10,NE,45,0.0,3.0,48,0.00,,,0.00,,2013-06-06 01:12:00,
2013-06-05 21:22:00,60.0,40.0,30.10,NE,45,1.0,2.0,47,0.00,,,0.00,,2013-06-06 01:22:00,
2013-06-05 21:32:00,59.0,40.0,30.10,NE,45,0.0,3.0,50,0.00,,,0.00,,2013-06-06 01:32:00,
2013-06-05 21:42:00,58.0,40.0,30.10,NE,45,0.0,0.0,51,0.00,,,0.00,,2013-06-06 01:42:00,
2013-06-05 21:53:00,58.0,40.0,30.10,NE,45,0.0,0.0,51,0.00,,,0.00,,2013-06-06 01:53:00,
2013-06-05 22:02:00,57.0,41.0,30.11,NE,53,1.0,2.0,54,0.00,,,0.00,,2013-06-06 02:02:00,
2013-06-05 22:12:00,57.0,41.0,30.11,NE,53,1.0,2.0,54,0.00,,,0.00,,2013-06-06 02:12:00,
2013-06-05 22:22:00,56.0,40.0,30.10,ENE,67,0.0,3.0,54,0.00,,,0.00,,2013-06-06 02:22:00,
2013-06-05 22:32:00,55.0,40.0,30.10,SE,135,0.0,0.0,56,0.00,,,0.00,,2013-06-06 02:32:00,
2013-06-05 22:42:00,55.0,40.0,30.10,SE,135,0.0,0.0,56,0.00,,,0.00,,2013-06-06 02:42:00,
2013-06-05 22:52:00,55.0,40.0,30.10,SE,135,0.0,0.0,56,0.00,,,0.00,,2013-06-06 02:52:00,
2013-06-05 23:02:00,55.0,41.0,30.10,South,180,0.0,2.0,59,0.00,,,0.00,,2013-06-06 03:02:00,
2013-06-05 23:12:00,55.0,41.0,30.10,South,180,0.0,2.0,59,0.00,,,0.00,,2013-06-06 03:12:00,
2013-06-05 23:22:00,54.0,40.0,30.10,SSE,157,0.0,0.0,59,0.00,,,0.00,,2013-06-06 03:22:00,
2013-06-05 23:33:00,53.0,40.0,30.10,SSE,157,0.0,0.0,61,0.00,,,0.00,,2013-06-06 03:33:00,
2013-06-05 23:43:00,53.0,40.0,30.10,SSE,157,0.0,0.0,61,0.00,,,0.00,,2013-06-06 03:43:00,
2013-06-05 23:53:00,53.0,41.0,30.09,South,180,0.0,0.0,64,0.00,,,0.00,,2013-06-06 03:53:00,